• In Uzbekistan
  • List of Countries
  • For 7 days
  • Water Temperature
  • Weather Map
  • Weather Widgets
  • user-avatar
    Login

    Hourly Weather Tatabanya

    Today, 2 June, Tuesday

    Time Temperature Precipitation Wind Pressure Humidity
    00:00 +12°C° 0 mm 2 mps 740 mmHg 80%
    01:00 +12°C° 0 mm 1 mps 740 mmHg 85%
    02:00 +11°C° 0.1 mm 1 mps 740 mmHg 86%
    03:00 +10°C° 0.1 mm 2 mps 740 mmHg 87%
    04:00 +9°C° 0.1 mm 2 mps 739 mmHg 89%
    05:00 +10°C° 0 mm 3 mps 739 mmHg 84%
    06:00 +12°C° 0 mm 3 mps 739 mmHg 80%
    07:00 +13°C° 0 mm 4 mps 740 mmHg 76%
    08:00 +14°C° 0.3 mm 5 mps 739 mmHg 71%
    09:00 +16°C° 0.3 mm 7 mps 739 mmHg 67%
    10:00 +17°C° 0.3 mm 8 mps 739 mmHg 62%
    11:00 +17°C° 0.1 mm 8 mps 739 mmHg 58%
    12:00 +18°C° 0.1 mm 7 mps 738 mmHg 54%
    13:00 +18°C° 0.1 mm 7 mps 738 mmHg 50%
    14:00 +20°C° 0.1 mm 7 mps 738 mmHg 51%
    15:00 +20°C° 0.1 mm 6 mps 737 mmHg 51%
    16:00 +20°C° 0.1 mm 5 mps 737 mmHg 52%
    17:00 +17°C° 0 mm 5 mps 737 mmHg 58%
    18:00 +17°C° 0 mm 4 mps 736 mmHg 65%
    19:00 +14°C° 0 mm 4 mps 736 mmHg 71%
    20:00 +13°C° 0 mm 3 mps 736 mmHg 74%
    21:00 +12°C° 0 mm 3 mps 736 mmHg 77%
    22:00 +12°C° 0 mm 2 mps 736 mmHg 80%
    23:00 +10°C° 0 mm 2 mps 736 mmHg 82%

    Tomorrow, 3 June, Wednesday

    Time Temperature Precipitation Wind Pressure Humidity
    00:00 +10°C° 0 mm 2 mps 736 mmHg 84%
    01:00 +9°C° 0 mm 2 mps 736 mmHg 86%
    02:00 +9°C° 0 mm 2 mps 735 mmHg 87%
    03:00 +8°C° 0 mm 2 mps 735 mmHg 89%
    04:00 +9°C° 0 mm 1 mps 734 mmHg 90%
    05:00 +10°C° 0 mm 2 mps 734 mmHg 86%
    06:00 +12°C° 0 mm 2 mps 734 mmHg 81%
    07:00 +14°C° 0 mm 2 mps 734 mmHg 77%
    08:00 +14°C° 0 mm 3 mps 734 mmHg 69%
    09:00 +17°C° 0 mm 3 mps 734 mmHg 60%
    10:00 +18°C° 0 mm 3 mps 734 mmHg 52%
    11:00 +19°C° 0 mm 3 mps 734 mmHg 51%
    12:00 +20°C° 0 mm 3 mps 733 mmHg 50%
    13:00 +20°C° 0 mm 3 mps 733 mmHg 49%
    14:00 +20°C° 0.1 mm 3 mps 733 mmHg 51%
    15:00 +20°C° 0.1 mm 3 mps 732 mmHg 52%
    16:00 +21°C° 0.1 mm 3 mps 732 mmHg 54%
    17:00 +19°C° 0 mm 2 mps 732 mmHg 60%
    18:00 +18°C° 0 mm 2 mps 732 mmHg 67%
    19:00 +18°C° 0 mm 1 mps 732 mmHg 73%
    20:00 +16°C° 0 mm 1 mps 732 mmHg 76%
    21:00 +15°C° 0 mm 1 mps 732 mmHg 78%
    22:00 +14°C° 0 mm 1 mps 732 mmHg 80%
    23:00 +14°C° 0 mm 1 mps 732 mmHg 82%

    Day after tomorrow, 4 June, Thursday

    Time Temperature Precipitation Wind Pressure Humidity
    00:00 +13°C° 0 mm 1 mps 732 mmHg 85%
    01:00 +13°C° 0 mm 1 mps 732 mmHg 88%
    02:00 +12°C° 0 mm 1 mps 731 mmHg 89%
    03:00 +12°C° 0 mm 1 mps 731 mmHg 90%
    04:00 +12°C° 0 mm 1 mps 731 mmHg 91%
    05:00 +13°C° 0 mm 2 mps 731 mmHg 87%
    06:00 +15°C° 0 mm 2 mps 731 mmHg 83%
    07:00 +16°C° 0 mm 3 mps 730 mmHg 79%
    08:00 +18°C° 0 mm 4 mps 730 mmHg 75%
    09:00 +19°C° 0 mm 4 mps 730 mmHg 72%
    10:00 +20°C° 0 mm 5 mps 730 mmHg 68%
    11:00 +21°C° 0.1 mm 5 mps 730 mmHg 67%
    12:00 +21°C° 0.1 mm 5 mps 730 mmHg 67%
    13:00 +22°C° 0.1 mm 5 mps 729 mmHg 67%
    14:00 +22°C° 0.5 mm 5 mps 729 mmHg 67%
    15:00 +23°C° 0.5 mm 5 mps 729 mmHg 66%
    16:00 +23°C° 0.5 mm 5 mps 728 mmHg 66%
    17:00 +22°C° 0.2 mm 5 mps 728 mmHg 69%
    18:00 +20°C° 0.2 mm 5 mps 728 mmHg 72%
    19:00 +19°C° 0.2 mm 5 mps 727 mmHg 75%
    20:00 +17°C° 0 mm 6 mps 727 mmHg 73%
    21:00 +17°C° 0 mm 6 mps 727 mmHg 71%
    22:00 +17°C° 0 mm 6 mps 727 mmHg 69%
    23:00 +17°C° 0 mm 6 mps 727 mmHg 68%

    5 June, Friday

    Time Temperature Precipitation Wind Pressure Humidity
    00:00 +17°C° 0 mm 6 mps 727 mmHg 66%
    01:00 +17°C° 0 mm 6 mps 727 mmHg 64%
    02:00 +16°C° 0.1 mm 5 mps 727 mmHg 67%
    03:00 +15°C° 0.1 mm 5 mps 727 mmHg 70%
    04:00 +15°C° 0.1 mm 4 mps 727 mmHg 72%
    05:00 +15°C° 0.5 mm 5 mps 727 mmHg 75%
    06:00 +16°C° 0.5 mm 5 mps 728 mmHg 78%
    07:00 +17°C° 0.5 mm 5 mps 728 mmHg 81%
    08:00 +19°C° 0.1 mm 6 mps 728 mmHg 77%
    09:00 +20°C° 0.1 mm 6 mps 728 mmHg 73%
    10:00 +21°C° 0.1 mm 6 mps 729 mmHg 69%
    11:00 +21°C° 0.7 mm 6 mps 729 mmHg 72%
    12:00 +20°C° 0.7 mm 6 mps 729 mmHg 75%
    13:00 +20°C° 0.7 mm 7 mps 729 mmHg 79%
    14:00 +19°C° 0.6 mm 6 mps 729 mmHg 82%
    15:00 +16°C° 0.6 mm 5 mps 730 mmHg 86%
    16:00 +15°C° 0.6 mm 4 mps 730 mmHg 90%
    17:00 +14°C° 0.3 mm 3 mps 730 mmHg 90%
    18:00 +14°C° 0.3 mm 3 mps 731 mmHg 90%
    19:00 +13°C° 0.3 mm 3 mps 731 mmHg 90%
    20:00 +14°C° 0 mm 2 mps 732 mmHg 90%
    21:00 +13°C° 0 mm 2 mps 733 mmHg 90%
    22:00 +13°C° 0 mm 2 mps 733 mmHg 89%
    23:00 +12°C° 0 mm 2 mps 733 mmHg 90%

    6 June, Saturday

    Time Temperature Precipitation Wind Pressure Humidity
    00:00 +12°C° 0 mm 2 mps 734 mmHg 90%
    01:00 +10°C° 0 mm 2 mps 734 mmHg 90%
    02:00 +10°C° 0 mm 2 mps 734 mmHg 90%
    03:00 +10°C° 0 mm 2 mps 734 mmHg 91%
    04:00 +9°C° 0 mm 2 mps 735 mmHg 91%
    05:00 +12°C° 0 mm 2 mps 735 mmHg 86%
    06:00 +14°C° 0 mm 2 mps 736 mmHg 81%
    07:00 +15°C° 0 mm 2 mps 736 mmHg 75%
    08:00 +17°C° 0 mm 2 mps 736 mmHg 67%
    09:00 +19°C° 0 mm 2 mps 737 mmHg 60%
    10:00 +21°C° 0 mm 2 mps 737 mmHg 52%
    11:00 +23°C° 0 mm 2 mps 737 mmHg 49%
    12:00 +24°C° 0 mm 2 mps 736 mmHg 46%
    13:00 +25°C° 0 mm 1 mps 736 mmHg 44%
    14:00 +25°C° 0 mm 1 mps 736 mmHg 44%
    15:00 +25°C° 0 mm 1 mps 736 mmHg 44%
    16:00 +25°C° 0 mm 1 mps 735 mmHg 44%
    17:00 +23°C° 0 mm 1 mps 735 mmHg 50%
    18:00 +22°C° 0 mm 1 mps 735 mmHg 56%
    19:00 +20°C° 0 mm 1 mps 735 mmHg 62%
    20:00 +19°C° 0 mm 1 mps 735 mmHg 64%
    21:00 +18°C° 0 mm 1 mps 736 mmHg 65%
    22:00 +16°C° 0 mm 1 mps 736 mmHg 67%
    23:00 +16°C° 0 mm 1 mps 736 mmHg 69%

    7 June, Sunday

    Time Temperature Precipitation Wind Pressure Humidity
    00:00 +15°C° 0 mm 1 mps 736 mmHg 71%
    01:00 +15°C° 0 mm 1 mps 736 mmHg 73%
    02:00 +14°C° 0 mm 1 mps 736 mmHg 74%
    03:00 +14°C° 0 mm 1 mps 736 mmHg 76%
    04:00 +14°C° 0 mm 1 mps 736 mmHg 77%
    05:00 +16°C° 0 mm 2 mps 736 mmHg 74%
    06:00 +17°C° 0 mm 2 mps 736 mmHg 70%
    07:00 +19°C° 0 mm 2 mps 736 mmHg 67%
    08:00 +20°C° 0 mm 3 mps 736 mmHg 64%
    09:00 +22°C° 0 mm 4 mps 736 mmHg 61%
    10:00 +23°C° 0 mm 4 mps 736 mmHg 58%
    11:00 +25°C° 0.3 mm 4 mps 736 mmHg 58%
    12:00 +25°C° 0.3 mm 5 mps 735 mmHg 59%
    13:00 +25°C° 0.3 mm 5 mps 735 mmHg 59%
    14:00 +25°C° 0.8 mm 5 mps 735 mmHg 62%
    15:00 +23°C° 0.8 mm 5 mps 734 mmHg 65%
    16:00 +23°C° 0.8 mm 5 mps 734 mmHg 68%
    17:00 +22°C° 0.3 mm 4 mps 734 mmHg 72%
    18:00 +21°C° 0.3 mm 4 mps 734 mmHg 77%
    19:00 +20°C° 0.3 mm 3 mps 734 mmHg 81%
    20:00 +19°C° 0.1 mm 3 mps 734 mmHg 84%
    21:00 +18°C° 0.1 mm 3 mps 734 mmHg 87%
    22:00 +17°C° 0.1 mm 3 mps 735 mmHg 89%
    23:00 +17°C° 0 mm 3 mps 735 mmHg 90%
    Show more